Location: Corralito
(14.1667°N, 87.1833°W)
Time: 23:20:09
(UTC+00:00)

Cosmos 1633 Rocket - Pass Details

Date: 07 June 2020
Orbit: 608 x 623 km, 82.5° (Epoch: 05 July)

Event Time Altitude Azimuth Distance (km) Brightness Sun altitude
Rises 10:37:19 0° 189° (S) 2,865 6.1 -10.1°
Reaches altitude 10° 10:39:33 10° 191° (SSW) 1,959 5.3 -9.6°
Maximum altitude 10:43:51 68° 274° (W) 657 3.0 -8.7°
Drops below altitude 10° 10:48:09 10° 358° (N) 1,955 6.0 -7.7°
Sets 10:50:22 0° 1° (N) 2,858 6.9 -7.3°
